User: anonymous   Login
Location: Hiram
(41.3130°N, 81.1440°W)
Time: 08:59:39
(UTC-04:00)
Language:

Iridium 62 - Orbit

View from above orbital plane
View from above orbital plane
View from above satellite
View from above satellite

Ground track
Ground track

The orbit data is extracted from the following two-line orbital elements,

1 25285U 98021A   17145.60866534 +.00000184 +00000-0 +58524-4 0  9999
2 25285 086.3992 233.3265 0002465 095.4942 264.6535 14.34223165001794
Epoch (UTC): 25 May 2017 14:36:28
Eccentricity: 0.0002465
inclination: 86.3992°
perigee height: 776 km
apogee height: 779 km
right ascension of ascending node: 233.3265°
argument of perigee: 95.4942°
revolutions per day: 14.34223165
mean anomaly at epoch: 264.6535°
orbit number at epoch: 179

The dashed part of the orbit path shows where the satellite is in the earth's shadow,  

DLR